Temp
72 74 76 74 74 58 61 66 59 65 67 66 54 52 52 52 49 49 48 56 54 58 67 69 73 76 77 79 81 82 81 81 80 79 80 81 83 83 83 83 82 82 83 83 84 84 84 83 83 82 81 81 81 80 80 79 79 79 79 79 78 79 79
74 77 74 76 77 68 61 60 65 67 69 71 61 48 52 51 45 46 52 55 52 58 52 61 69 69 74 76 78 81 81 80 79 80 80 81 83 83 84 83 83 84 84 83 84 85 85 84 84 83 82 82 82 81 81 80 79 78 79 79 79 79 78
72 76 73 70 74 78 74 67 71 68 51 53 50 47 49 44 46 46 44 51 53 54 55 61 63 68 71 72 75 78 79 79 78 80 81 82 83 84 83 83 83 83 83 83 84 85 86 85 84 84 84 83 82 82 82 82 80 81 80 81 80 80 80
72 72 68 60 67 72 74 70 68 70 61 60 52 56 45 50 44 45 46 50 56 57 60 63 69 68 72 74 74 75 78 80 80 81 82 82 82 82 84 84 84 85 85 85 85 85 85 85 84 84 84 84 83 83 82 81 82 81 81 80 80 79 80
69 60 63 64 67 64 66 64 63 63 65 61 67 56 59 53 38 38 43 46 51 52 59 67 70 71 72 74 75 76 78 80 82 82 83 82 82 83 84 85 85 85 86 86 86 86 86 86 86 85 85 84 84 84 82 82 81 81 80 81 80 80 80
59 60 68 72 71 72 69 67 64 67 63 54 54 52 58 52 51 40 41 50 56 55 65 71 70 73 75 75 77 77 79 81 82 84 84 84 83 83 84 86 86 87 86 87 87 87 86 86 85 85 85 85 84 83 84 83 82 82 81 80 80 80 80
63 67 71 74 77 75 74 71 68 67 62 55 54 43 50 52 56 53 50 49 58 61 66 70 73 72 75 76 76 77 79 80 83 84 85 85 85 84 86 86 87 87 87 87 87 85 84 84 84 84 84 84 84 84 84 83 82 82 83 82 81 81 80
63 68 69 69 70 74 70 71 72 69 64 64 66 60 50 55 48 53 48 51 54 66 63 68 71 70 73 75 76 77 80 81 82 83 84 83 82 83 86 87 88 88 87 86 85 83 82 82 82 83 84 84 84 84 84 84 83 83 83 83 82 81 80
52 59 62 64 67 68 65 66 70 72 73 69 63 54 50 57 53 54 49 50 54 60 61 67 66 68 71 73 74 76 78 79 81 82 82 82 82 82 83 84 85 86 86 84 82 82 81 81 83 83 83 84 84 84 84 84 84 84 83 83 82 81 81
42 43 46 50 56 61 63 65 69 72 71 68 62 61 52 52 48 52 48 50 46 55 59 70 67 66 65 67 71 75 78 79 81 81 81 79 79 80 81 82 84 84 84 83 81 81 81 82 83 82 82 83 84 84 84 85 84 84 83 83 83 82 81
49 51 51 53 59 61 63 66 66 68 71 73 70 60 54 54 44 53 48 49 52 61 69 68 70 70 74 74 68 69 73 75 76 76 78 78 79 80 82 82 84 83 81 81 81 81 82 83 83 83 83 83 84 83 84 85 85 84 83 83 82 82 81
51 55 54 61 65 65 66 65 66 68 67 69 68 63 59 52 51 53 49 47 59 58 56 59 62 67 70 73 75 73 70 72 75 77 76 79 78 79 80 81 80 80 81 81 80 80 81 82 82 83 83 84 84 83 83 84 85 84 84 83 82 81 81
56 57 58 61 62 67 68 68 68 67 67 66 65 65 59 58 61 59 53 51 56 58 61 65 67 70 71 73 70 73 76 75 71 70 74 76 79 80 79 78 78 79 80 79 79 80 81 82 81 82 82 83 83 83 84 84 85 84 84 82 81 81 80
53 56 58 60 61 63 66 68 68 69 69 68 68 68 64 63 61 61 60 53 61 65 69 70 73 70 73 69 66 66 68 73 74 73 74 78 79 80 80 80 80 79 80 80 80 80 80 81 81 82 81 81 82 83 83 84 84 85 83 82 81 81 80
50 54 58 60 61 63 63 64 68 70 70 70 70 70 68 64 65 64 58 53 56 62 64 73 75 73 67 65 66 71 72 70 71 72 74 77 79 81 81 80 80 80 80 80 79 79 79 80 81 82 82 82 83 84 84 84 84 85 84 82 81 81 80
45 53 55 57 58 59 61 64 63 65 67 65 69 67 69 62 59 61 58 53 55 60 64 64 66 64 65 68 66 66 68 69 68 71 74 75 76 78 80 79 78 78 79 79 78 79 80 81 81 82 81 82 82 83 84 85 85 85 84 83 82 81 81
40 51 55 55 55 55 54 59 66 67 66 68 70 70 70 70 70 63 60 63 65 68 68 66 68 68 66 66 67 67 64 63 68 72 74 75 76 78 79 78 78 79 80 80 80 81 82 82 83 83 83 83 82 83 83 84 85 85 84 83 81 81 81
42 50 52 54 48 43 52 69 72 70 67 66 64 66 69 68 69 69 72 73 72 69 63 65 69 71 67 70 66 63 67 66 64 67 71 76 78 78 80 81 81 81 81 81 82 82 83 83 85 86 85 84 84 85 85 85 84 84 83 83 82 81 81
40 48 49 44 38 45 61 60 71 74 73 69 67 66 68 71 68 68 66 67 68 66 67 67 70 68 64 63 63 65 64 65 68 67 68 69 71 75 78 77 79 78 79 80 80 80 81 83 84 84 84 85 85 85 84 83 83 83 83 82 82 81 80
45 42 41 35 34 50 58 61 63 68 71 67 67 62 62 59 61 62 64 61 63 61 61 61 59 64 66 64 64 64 66 66 65 66 68 70 71 73 76 78 79 78 78 79 80 80 82 82 83 85 85 86 85 85 85 84 83 83 83 82 81 81 80
37 40 41 44 52 54 59 58 57 54 52 56 63 57 55 59 61 58 65 65 61 60 61 63 65 65 65 64 65 68 68 67 67 67 68 70 71 73 73 74 76 77 81 82 83 82 82 83 83 84 86 86 85 85 83 83 83 83 83 81 81 81 81
47 41 38 39 40 42 44 51 58 61 62 59 57 61 58 58 59 61 62 64 62 63 64 67 66 62 65 63 60 66 68 68 68 67 68 70 69 69 71 72 76 76 76 78 79 82 82 82 84 85 86 86 84 82 82 82 82 82 82 81 81 81 81
46 41 37 36 38 40 48 51 57 60 61 60 58 57 54 56 61 60 61 62 61 65 68 65 62 65 60 56 56 65 65 66 68 66 66 68 68 69 69 69 69 71 74 76 78 78 77 80 81 82 84 84 83 81 81 82 82 81 81 81 81 81 81
44 42 39 35 43 44 49 55 58 60 60 60 59 50 49 55 60 62 62 62 61 60 61 64 62 65 63 60 57 64 66 66 66 64 64 65 66 68 69 70 69 69 70 76 76 79 78 79 81 80 80 81 80 80 80 82 81 81 81 81 82 83 83
44 44 38 41 46 53 55 56 59 61 62 57 56 46 50 57 61 61 61 60 60 59 60 61 60 57 59 59 61 65 65 64 64 65 66 65 66 67 68 68 69 68 69 71 74 78 79 78 78 79 81 80 80 80 80 80 81 83 83 83 83 83 83
38 40 39 40 44 51 55 59 59 62 57 49 45 53 60 60 60 61 62 61 61 62 61 61 60 60 62 64 64 63 64 63 63 64 65 66 67 68 69 70 68 68 68 68 70 73 73 74 77 78 79 79 79 78 78 79 82 85 84 83 83 83 82
44 42 39 38 34 47 58 57 58 60 48 48 56 57 61 63 61 61 61 62 61 62 60 60 60 61 62 63 63 63 64 64 63 63 64 64 64 65 66 66 68 68 67 68 68 69 70 72 74 77 77 76 76 77 77 80 81 81 80 80 81 81 80
38 40 36 37 48 53 59 56 48 54 56 59 60 58 58 61 60 60 60 60 61 61 60 60 60 61 61 61 63 63 63 64 64 64 64 65 65 66 66 67 66 67 66 67 67 68 68 69 69 73 78 75 75 74 76 73 75 77 77 78 78 78 78
46 42 45 54 55 56 58 57 56 58 60 62 61 59 59 58 59 60 60 60 61 61 61 61 61 60 61 61 63 62 62 63 63 63 64 65 65 65 65 65 66 66 65 65 66 66 67 67 68 67 70 75 74 76 75 72 74 77 78 77 77 77 79
55 55 55 56 57 57 56 59 59 59 60 61 61 58 57 58 59 60 60 60 60 60 61 59 58 59 60 60 61 61 61 60 61 63 64 66 67 67 66 65 65 65 65 66 66 66 66 67 68 68 67 69 73 74 71 73 76 77 78 77 76 77 78
46 40 54 54 54 56 56 57 59 60 60 58 58 56 56 58 59 60 60 60 60 59 59 58 57 57 58 57 58 58 59 59 60 61 63 64 65 66 65 66 65 64 65 65 66 66 66 67 68 68 68 68 67 67 68 71 74 76 77 77 76 76 76
45 46 52 54 57 57 57 56 55 55 57 59 59 57 57 58 59 60 59 60 59 60 58 58 58 57 58 57 57 57 58 58 60 61 62 63 65 66 67 66 65 65 65 65 65 66 66 67 67 68 68 67 68 68 70 72 73 73 74 74 73 73 73
51 54 55 55 56 56 57 58 57 57 57 58 58 58 57 58 57 58 59 60 59 59 58 59 59 57 57 58 58 58 58 59 60 61 62 63 64 65 66 65 65 64 65 65 65 66 66 67 67 67 67 67 68 67 68 70 70 70 71 70 70 70 71
45 46 49 53 49 48 53 56 56 57 59 59 58 57 57 57 56 57 58 58 59 59 59 59 59 57 57 58 58 58 58 58 59 60 61 63 64 65 66 66 65 65 65 65 65 65 66 67 67 67 67 68 68 69 68 68 68 67 66 67 68 69 70
43 52 53 54 55 53 54 56 57 58 59 58 57 56 56 57 58 58 58 57 57 57 57 59 59 57 57 57 59 59 58 58 59 60 61 62 63 64 65 65 66 66 66 66 66 66 66 67 67 68 68 68 68 68 68 68 68 67 68 67 68 68 69
52 55 55 57 55 52 54 56 58 57 58 58 57 57 57 57 57 57 57 56 56 56 57 57 58 58 58 58 59 58 58 59 59 60 61 64 64 65 65 65 65 66 66 66 66 65 66 67 67 67 68 68 68 68 68 68 67 66 66 66 66 67 67
50 55 55 55 55 56 56 57 57 57 58 59 57 57 57 57 57 57 55 55 55 56 56 56 57 58 58 58 58 57 58 59 60 61 62 63 65 64 64 65 65 65 65 66 66 66 66 66 67 67 67 67 68 68 68 68 68 66 66 65 65 65 65
MSLP
1001.30 1001.34 1001.26 1002.06 1001.94 1008.18 1005.02 1005.58 1007.90 1005.46 1003.86 1005.98 1008.14 1008.50 1008.42 1008.54 1009.54 1009.30 1006.38 1005.14 1005.22 1002.70 1001.10 1000.22 1000.06 999.94 1000.22 999.90 999.94 1000.02 1000.14 1000.18 1000.54 1001.30 1001.34 1001.30 1001.22 1001.18 1001.30 1001.54 1001.70 1001.82 1001.98 1002.18 1002.26 1002.42 1002.74 1003.06 1003.54 1003.86 1004.02 1004.26 1004.62 1005.22 1005.86 1006.34 1006.66 1006.98 1007.30 1007.50 1007.74 1008.02 1008.30
1000.86 1000.02 1000.46 1000.90 1000.98 1001.66 1004.38 1006.78 1004.78 1003.34 1002.98 1003.78 1007.06 1010.62 1008.58 1009.14 1010.94 1008.94 1006.54 1006.54 1005.54 1005.18 1005.90 1000.66 1000.86 1001.34 1000.70 1000.62 1000.30 999.94 999.82 999.98 1000.82 1000.78 1000.74 1000.66 1000.54 1000.26 1000.14 1000.34 1000.62 1000.90 1001.14 1001.46 1001.66 1001.78 1001.94 1002.22 1002.54 1002.90 1003.22 1003.42 1003.86 1004.38 1004.86 1005.58 1006.18 1006.70 1006.82 1007.10 1007.46 1007.70 1008.06
1000.42 999.82 1001.06 1002.38 1001.06 1000.02 1002.18 1003.38 1001.22 1004.90 1008.94 1009.38 1006.90 1008.02 1011.02 1011.18 1010.66 1009.10 1007.02 1006.22 1005.18 1004.46 1003.94 1001.42 1002.22 1001.70 1001.14 1000.98 1000.50 1000.30 1000.34 1000.38 1000.42 1000.10 999.90 999.66 999.46 999.86 1000.34 1000.50 1000.62 1000.70 1000.86 1001.02 1001.18 1001.26 1001.22 1001.46 1001.66 1001.90 1002.22 1002.82 1003.50 1004.02 1004.34 1004.78 1005.34 1005.46 1005.82 1006.26 1006.62 1006.90 1007.18
1000.26 1000.42 1001.86 1005.82 1003.58 1001.18 1000.70 1000.74 1002.66 1001.26 1003.38 1005.74 1008.10 1006.46 1006.78 1007.26 1009.90 1009.62 1008.22 1006.66 1005.86 1002.94 1001.98 1000.58 1000.58 1001.02 1000.18 999.98 1000.26 1000.42 999.82 999.62 999.62 999.50 999.38 999.30 999.58 999.66 999.58 999.74 999.82 999.86 999.98 1000.14 1000.38 1000.66 1000.98 1001.18 1001.50 1001.74 1002.18 1002.74 1003.30 1003.50 1003.98 1004.46 1004.70 1005.18 1005.70 1006.02 1006.22 1006.66 1006.82
1000.54 1003.66 1001.98 1003.26 1002.94 1003.86 1003.54 1003.78 1003.86 1003.50 1002.82 1002.22 1002.78 1004.90 1005.14 1006.70 1008.34 1008.66 1008.66 1008.46 1004.34 1001.74 999.82 999.14 998.62 999.06 999.66 999.34 999.46 999.30 999.06 998.74 998.58 998.46 998.38 998.54 998.62 998.74 998.78 998.78 999.02 999.18 999.30 999.46 999.62 999.78 999.98 1000.18 1000.50 1001.14 1001.82 1002.42 1002.62 1003.06 1003.74 1003.98 1004.62 1005.06 1005.38 1005.54 1005.90 1006.18 1006.46
1003.02 1001.86 999.90 999.86 1000.70 1000.98 1001.86 1002.66 1003.50 1002.70 1003.94 1005.42 1007.02 1007.46 1004.02 1004.18 1005.94 1007.30 1007.74 1007.22 1003.06 999.98 999.98 997.86 997.54 997.66 998.06 998.34 998.26 998.30 997.94 997.66 997.62 997.42 997.26 997.34 997.90 997.82 997.74 997.94 998.14 998.42 998.62 998.78 998.90 999.22 999.66 1000.30 1000.82 1001.38 1001.54 1001.90 1002.42 1002.98 1003.06 1003.50 1004.06 1004.50 1004.74 1005.14 1005.30 1005.62 1006.02
1001.90 1000.42 998.66 998.06 998.18 999.02 999.86 1000.82 1002.22 1001.38 1002.14 1002.94 1004.86 1008.02 1005.66 1004.58 1004.10 1003.74 1004.14 1005.70 1002.78 998.30 998.06 997.62 996.42 996.74 997.50 997.26 997.62 997.98 997.62 997.30 996.98 996.70 996.46 996.50 996.54 996.78 997.14 997.42 997.54 997.66 997.86 998.06 998.38 998.94 999.54 999.98 1000.30 1000.62 1001.02 1001.46 1001.82 1002.10 1002.50 1003.06 1003.54 1003.74 1003.90 1004.26 1004.66 1005.14 1005.54
1000.06 999.26 998.66 998.50 998.42 998.82 1000.38 1000.26 999.90 1000.86 1002.54 1002.02 1002.30 1002.78 1002.78 1004.14 1004.22 1005.14 1005.82 1005.74 1002.70 997.90 997.18 997.78 996.78 995.50 995.78 996.90 997.18 997.14 997.10 996.86 996.62 996.42 996.38 996.54 996.86 996.78 996.62 996.62 996.82 997.02 997.22 997.50 998.22 999.02 999.54 999.86 1000.14 1000.38 1000.58 1000.82 1001.10 1001.54 1001.98 1002.38 1002.86 1003.06 1003.54 1003.98 1004.38 1004.78 1005.14
1002.70 1001.82 1000.58 1000.30 999.06 999.26 1000.26 1000.58 999.90 999.46 999.70 1000.26 1000.90 1001.38 1003.82 1003.58 1003.42 1003.46 1005.26 1006.50 1003.10 998.46 997.66 996.90 997.74 998.02 997.10 996.82 996.94 996.90 997.10 996.74 996.42 996.30 996.18 996.18 996.22 996.38 996.62 996.78 996.74 996.82 997.22 997.86 998.38 998.62 998.94 999.18 999.38 999.74 1000.06 1000.34 1000.74 1001.18 1001.50 1001.94 1002.14 1002.50 1003.06 1003.42 1004.02 1004.38 1004.74
1006.62 1006.30 1005.34 1004.06 1003.30 1001.70 1000.42 999.26 999.34 999.06 999.46 1000.50 1002.10 1003.42 1003.62 1004.26 1003.62 1003.26 1003.70 1003.86 1000.46 998.10 998.10 996.58 996.78 997.18 996.78 996.54 996.70 996.58 996.30 996.06 996.06 995.94 996.02 996.18 996.34 996.38 996.38 996.46 996.62 996.90 996.94 997.22 997.66 998.06 998.38 998.58 998.82 999.18 999.50 999.82 1000.14 1000.50 1000.82 1000.86 1001.58 1002.22 1002.62 1002.98 1003.38 1003.90 1004.34
1004.34 1003.26 1001.98 999.78 998.82 1000.22 1001.10 999.62 999.42 999.30 998.74 998.50 999.70 1000.98 1002.98 1003.94 1003.86 1002.90 1001.78 1000.86 1000.98 999.30 998.02 997.42 996.58 996.62 996.14 995.50 996.34 996.94 996.54 996.22 995.82 995.54 995.50 995.74 995.98 995.94 995.98 996.10 995.98 996.06 996.78 997.14 997.18 997.34 997.54 997.82 998.14 998.50 998.86 999.22 999.58 999.94 1000.30 1000.58 1000.94 1001.46 1001.86 1002.42 1002.90 1003.46 1003.86
1004.30 1003.86 1003.86 1001.82 999.58 999.10 998.98 999.70 999.46 998.74 999.06 999.02 999.78 1001.14 1001.42 1000.62 1002.58 1003.70 1001.22 1000.02 1000.58 999.78 998.06 997.50 997.30 996.86 996.02 995.38 994.82 995.34 996.14 995.86 995.58 995.14 994.90 995.14 995.58 995.78 995.94 996.06 996.18 996.50 996.46 996.50 996.82 997.06 997.30 997.62 997.74 998.02 998.30 998.54 998.90 999.34 999.82 1000.14 1000.54 1001.10 1001.58 1002.06 1002.50 1002.86 1003.30
1003.50 1003.14 1002.78 1001.66 1000.98 998.74 997.82 998.18 998.50 998.98 998.54 998.98 999.98 999.22 999.86 999.34 1001.34 1001.62 1000.54 999.74 1000.54 999.50 997.58 996.30 995.94 995.42 995.62 995.86 995.62 994.86 994.50 994.66 995.18 995.58 995.58 995.50 995.30 995.10 995.54 995.94 996.06 996.06 996.18 996.30 996.46 996.66 996.86 997.06 997.54 997.78 998.06 998.34 998.66 999.02 999.30 999.70 1000.10 1000.46 1000.70 1001.42 1002.02 1002.46 1002.86
1003.78 1002.82 1002.06 1001.14 1000.74 999.50 998.38 997.70 997.54 997.54 997.98 998.18 998.14 998.50 999.02 998.90 998.78 998.78 998.82 999.22 999.02 997.98 996.90 995.86 994.90 994.66 994.58 995.46 995.10 994.90 995.42 994.86 994.50 995.02 995.30 995.22 995.02 994.98 994.94 994.98 995.26 995.42 995.38 995.54 995.78 996.02 996.42 996.74 997.06 997.38 997.78 998.06 998.26 998.62 998.98 999.26 999.62 999.70 1000.30 1000.90 1001.38 1001.86 1002.26
1004.46 1002.86 1001.50 1000.50 1000.30 999.38 999.10 998.06 997.14 996.78 996.86 997.02 996.86 997.34 997.94 998.94 998.94 998.50 998.98 999.94 999.46 997.86 996.14 994.70 993.82 994.22 995.14 996.46 996.06 995.10 994.42 994.66 994.98 995.10 995.14 994.86 994.58 994.38 994.22 994.30 994.46 994.62 994.82 994.94 995.30 995.78 996.10 996.30 996.38 996.66 996.94 997.18 997.46 997.86 998.26 998.66 998.98 999.18 999.70 1000.38 1000.86 1001.14 1001.38
1005.30 1002.70 1002.42 1001.90 1001.10 1000.78 999.70 998.30 997.82 997.26 996.82 997.58 996.66 997.42 996.90 998.78 999.42 998.86 999.14 1000.14 1000.06 997.38 995.74 996.02 995.02 995.18 995.54 994.78 994.46 994.62 994.50 993.78 994.46 994.66 994.34 994.58 994.46 994.14 994.02 994.10 994.34 994.58 994.62 994.78 995.14 995.38 995.50 995.66 995.86 996.18 996.58 996.86 997.34 997.74 997.78 998.10 998.18 998.54 999.22 999.74 1000.22 1000.46 1000.50
1005.94 1003.46 1002.98 1002.78 1002.10 1000.90 1000.18 999.06 996.50 996.18 996.22 995.54 995.46 995.50 995.46 995.90 996.54 998.86 999.54 998.54 996.70 995.22 995.02 996.14 995.78 995.34 995.26 995.14 995.18 994.74 994.42 994.98 994.70 993.58 993.38 993.86 993.90 993.70 993.46 993.66 993.98 994.14 994.26 994.26 994.34 994.46 994.58 994.86 995.22 995.26 995.42 996.18 996.78 996.82 997.22 997.14 997.62 998.46 998.94 999.30 999.70 1000.06 1000.38
1006.02 1004.10 1003.42 1002.86 1003.14 1003.14 999.50 993.82 993.86 995.06 996.02 996.10 996.78 996.66 995.90 995.46 995.74 995.90 995.22 995.34 994.66 994.82 996.10 996.10 995.42 994.90 994.66 994.38 994.70 995.22 995.06 994.18 994.38 994.98 994.70 993.54 992.90 992.90 992.98 993.02 993.26 993.30 993.50 993.70 993.66 993.54 993.62 993.74 993.86 993.98 994.46 995.10 995.38 995.58 996.02 996.74 997.62 998.06 998.46 998.82 999.14 999.50 999.94
1006.46 1004.34 1003.90 1003.94 1003.98 1001.66 995.66 994.10 992.82 993.06 993.98 994.86 995.46 994.94 994.46 994.34 994.66 994.78 995.30 994.98 994.82 994.54 995.14 994.98 994.26 994.50 995.46 995.38 995.30 995.54 995.62 995.18 994.50 994.10 993.86 994.10 994.06 993.22 992.74 992.94 992.90 993.02 993.18 993.34 993.54 993.86 993.94 993.86 993.94 994.30 994.78 994.74 995.06 995.70 996.18 996.86 997.10 997.54 997.86 998.30 998.70 999.06 999.58
1004.78 1005.02 1004.50 1005.74 1001.98 997.62 997.02 995.06 994.82 994.26 993.34 994.10 995.10 995.78 995.26 995.42 995.10 995.06 995.02 994.42 993.94 993.90 994.42 995.10 995.34 995.02 995.54 995.66 995.66 995.62 995.50 995.58 995.38 994.70 994.14 993.62 993.22 993.50 993.22 992.58 992.14 992.34 992.70 992.90 993.06 993.18 992.94 993.38 993.70 993.90 994.18 994.26 994.98 995.38 995.50 996.06 996.54 996.90 997.38 997.94 998.38 998.82 999.38
1006.62 1004.70 1004.30 1003.62 1000.42 999.18 996.50 996.70 998.30 999.98 1000.66 999.54 996.58 997.10 996.10 994.74 994.94 994.98 994.10 993.50 993.26 993.62 994.18 994.26 994.78 995.22 995.34 995.02 995.10 994.90 995.62 995.46 995.22 995.18 994.94 994.54 993.66 992.78 992.34 992.54 992.86 992.38 991.70 991.54 991.66 992.10 992.66 992.94 993.22 993.42 993.42 993.94 994.46 994.98 995.62 995.86 996.22 996.58 997.06 997.62 997.94 998.26 998.66
1003.70 1004.74 1004.62 1003.10 1002.26 1001.82 998.58 1000.02 999.22 998.90 998.90 999.06 999.30 998.14 995.34 994.38 994.46 994.70 994.18 993.10 993.26 993.78 994.38 994.54 994.82 994.74 995.10 995.86 995.74 995.22 995.70 995.62 995.42 995.06 994.70 994.10 993.70 993.26 992.98 992.42 991.90 991.74 992.14 992.54 992.38 992.38 992.54 992.70 992.66 992.74 993.06 993.66 994.38 995.10 995.42 995.66 996.18 996.58 996.94 997.18 997.18 997.46 997.74
1003.70 1004.06 1004.46 1004.26 1003.82 1000.10 1000.34 1000.50 999.22 998.30 997.90 998.26 998.18 998.46 997.74 994.78 994.34 994.30 994.38 994.22 994.26 993.86 994.06 994.70 994.78 994.34 995.74 996.82 996.42 995.78 996.26 995.98 995.62 995.50 994.86 994.50 994.14 993.86 993.54 993.34 992.82 992.38 992.02 992.02 992.42 992.66 992.82 993.14 992.90 992.98 993.30 993.82 994.54 995.02 995.14 995.38 995.70 996.22 996.46 996.42 996.74 997.02 997.10
1003.98 1004.02 1004.78 1004.90 1002.22 1000.78 1000.02 999.74 998.94 998.18 997.58 997.58 996.86 998.98 998.42 995.02 994.62 994.34 994.46 995.06 994.66 994.50 994.22 994.34 994.58 994.14 995.58 996.30 996.26 996.42 996.34 996.22 995.90 995.74 995.42 994.94 994.66 994.38 993.94 993.58 993.54 993.22 992.58 992.06 992.02 992.30 992.74 992.58 992.38 992.82 993.26 993.78 994.30 994.62 994.82 994.94 995.50 995.74 995.66 995.62 995.66 995.86 996.26
1003.78 1004.06 1004.26 1003.46 1002.22 999.74 1000.34 1000.10 998.98 997.74 996.86 996.82 997.38 999.02 996.74 995.10 994.86 994.54 994.58 995.06 995.26 995.02 994.58 993.98 995.10 997.74 996.70 996.54 996.86 996.66 996.42 996.22 995.90 995.58 995.30 995.14 994.94 994.70 994.38 994.22 993.86 993.50 992.98 992.58 992.38 992.18 992.10 992.18 992.54 992.74 993.10 993.70 994.18 994.30 994.54 994.90 994.90 994.46 994.18 994.38 994.82 995.26 995.78
1003.34 1004.18 1004.70 1004.26 1002.66 1001.06 1000.82 999.54 999.02 997.66 996.82 997.74 998.10 998.10 997.58 996.46 995.46 995.10 995.10 995.50 995.54 995.30 995.58 995.90 996.74 997.14 996.82 996.70 996.62 996.58 996.50 996.54 996.42 995.94 995.46 994.94 994.42 994.18 994.10 993.94 993.70 993.54 993.62 993.50 992.94 992.62 992.46 992.30 992.38 992.62 992.98 993.58 993.86 994.30 994.78 994.82 993.94 993.14 993.34 993.82 994.18 994.78 995.42
1004.18 1004.14 1004.42 1004.54 1005.06 1000.54 1000.50 1000.30 998.78 998.54 999.90 1000.94 1000.18 999.22 997.46 996.54 996.18 995.66 995.54 995.26 995.62 995.14 996.42 996.70 996.94 997.22 997.38 997.22 997.06 997.02 996.90 996.58 996.34 996.06 995.74 995.66 995.54 995.18 994.62 994.18 994.06 994.02 993.70 993.46 993.70 993.70 993.14 992.50 992.18 992.46 993.10 993.66 993.82 993.94 994.34 993.94 993.58 993.74 993.94 994.18 994.54 994.90 995.34
1003.54 1004.10 1004.38 1004.18 1002.10 1001.62 1000.74 1001.26 1002.26 1001.06 1000.66 999.54 999.10 999.26 998.02 996.82 996.58 996.18 995.78 995.86 995.78 995.74 996.06 996.90 997.26 997.42 997.54 997.54 997.42 997.30 997.18 997.02 996.78 996.46 996.14 995.82 995.50 995.30 995.22 995.22 995.06 994.66 994.50 994.14 993.78 993.70 993.58 993.38 993.06 992.54 992.50 993.30 993.66 994.02 993.94 993.50 993.46 993.50 993.78 994.02 994.22 994.66 995.06
1000.90 1002.06 1001.86 1001.18 1001.14 1001.10 1001.02 1001.06 1001.22 1000.66 999.54 998.98 998.86 998.90 998.54 998.14 997.14 996.26 996.14 996.30 996.22 996.06 996.18 996.66 996.98 997.38 997.54 997.62 997.54 997.46 997.50 997.30 997.02 996.82 996.62 996.38 996.14 995.86 995.66 995.50 995.26 995.18 995.26 995.02 994.62 994.14 994.14 994.06 993.86 993.58 993.18 992.94 993.26 993.42 992.98 992.86 993.10 993.34 993.50 993.78 994.30 994.74 995.02
1000.54 1000.50 1000.46 1000.62 1000.94 1001.18 1001.30 1000.66 1000.46 999.98 999.34 999.18 999.18 999.58 999.50 998.62 997.78 996.90 996.62 996.46 996.42 996.46 996.34 996.70 997.54 997.70 997.90 997.98 997.98 997.90 997.82 997.70 997.50 997.10 996.78 996.50 996.30 996.14 995.98 995.78 995.58 995.66 995.58 995.54 995.42 995.18 994.90 994.66 994.46 994.38 994.22 994.02 993.50 993.06 992.86 992.86 992.66 992.86 993.10 993.54 994.02 994.30 994.46
1001.06 1002.54 1000.90 1001.14 1001.38 1001.42 1001.38 1000.70 999.86 999.38 999.38 999.98 1000.26 1000.50 1000.30 999.38 998.10 997.42 996.98 996.82 996.94 997.06 997.14 997.38 997.90 998.26 998.30 998.34 998.42 998.34 998.18 998.06 997.94 997.66 997.42 997.10 996.78 996.50 996.34 996.22 996.06 996.02 995.94 995.86 995.78 995.74 995.58 995.26 995.06 994.82 994.70 994.54 994.66 994.42 994.06 993.54 993.10 992.78 992.94 993.18 993.54 993.82 994.18
1001.34 1001.46 1001.30 1001.02 1000.70 1001.14 1001.06 1000.66 1000.14 999.78 999.94 1000.38 1000.70 1001.02 1000.66 999.74 998.58 997.58 997.18 996.86 996.98 996.78 997.18 997.58 997.78 998.34 998.38 998.34 998.50 998.50 998.46 998.42 998.26 998.06 997.86 997.62 997.22 996.82 996.54 996.42 996.38 996.34 996.34 996.38 996.30 996.10 995.94 995.62 995.30 995.14 994.98 994.86 994.70 994.50 994.26 994.10 993.86 993.50 993.34 993.30 993.38 993.54 993.62
1001.50 1000.90 1000.74 1000.54 1000.54 1000.58 1000.82 1000.82 1000.26 1000.10 1000.58 1000.78 1000.50 1000.58 1000.62 1000.26 999.66 998.42 997.50 997.26 997.50 997.34 997.62 997.58 997.62 997.98 998.38 998.30 998.30 998.30 998.34 998.22 998.14 998.06 997.94 997.74 997.54 997.22 996.94 996.82 996.70 996.78 996.74 996.74 996.66 996.54 996.34 995.94 995.70 995.46 995.30 995.10 994.90 994.74 994.54 994.26 994.10 994.14 994.02 994.02 993.98 993.94 993.94
1002.02 1001.26 1000.78 1000.46 1001.06 1001.38 1001.30 1001.18 1000.74 1000.42 1000.42 1000.46 1000.66 1001.02 1001.38 1001.22 1000.62 999.34 998.18 997.98 997.82 997.82 997.82 997.78 997.78 998.14 998.46 998.42 998.18 998.34 998.42 998.42 998.30 998.10 997.94 997.78 997.62 997.50 997.26 997.06 996.98 996.94 996.94 996.98 996.98 996.86 996.62 996.26 996.02 995.90 995.74 995.50 995.18 994.94 994.70 994.54 994.50 994.62 994.66 994.58 994.58 994.50 994.26
1001.38 1000.42 1000.18 1000.10 999.90 1000.26 1000.90 1000.90 1000.58 1000.22 1000.46 1000.74 1000.90 1001.50 1002.02 1001.58 1000.70 999.46 998.66 998.46 998.42 998.34 998.34 998.14 998.10 998.30 998.42 998.54 998.30 998.42 998.58 998.54 998.42 998.30 998.14 998.06 997.94 997.82 997.54 997.34 997.10 997.06 996.98 996.86 996.90 996.90 996.78 996.50 996.38 996.22 996.06 995.86 995.66 995.46 995.26 995.10 995.06 995.06 994.98 995.06 995.06 995.02 994.90
1001.06 1000.50 1000.22 999.90 999.94 1000.42 1000.66 1000.50 1000.30 1000.10 1000.34 1000.78 1001.26 1001.18 1001.18 1001.26 1000.86 1000.06 999.38 998.90 998.74 998.86 998.74 998.62 998.46 998.46 998.46 998.58 998.50 998.78 998.90 998.78 998.58 998.46 998.30 998.14 998.14 997.98 997.70 997.54 997.42 997.22 997.06 996.98 996.98 996.98 996.74 996.54 996.46 996.30 996.18 996.02 995.86 995.66 995.46 995.38 995.38 995.58 995.82 996.02 996.26 996.26 996.14
1001.22 1000.42 1000.46 1000.30 1000.18 1000.06 1000.10 1000.18 1000.26 1000.30 1000.34 1000.74 1001.34 1001.42 1001.26 1001.22 1000.66 1000.06 999.86 999.54 999.30 998.98 998.86 998.86 998.82 998.66 998.58 998.74 998.74 998.90 999.06 999.10 998.94 998.82 998.62 998.50 998.34 998.22 998.14 997.94 997.86 997.74 997.54 997.26 997.02 996.78 996.62 996.54 996.42 996.26 996.26 996.14 995.94 995.78 995.62 995.54 995.46 995.66 995.82 995.98 996.22 996.42 996.74
Wind_Speed
7 13 8 6 10 9 4 8 12 16 6 7 5 4 3 1 2 8 2 4 5 7 4 5 8 13 16 17 19 19 19 16 14 15 16 18 19 19 18 19 18 20 19 18 18 18 17 18 17 19 20 20 21 19 19 20 19 18 19 20 19 18 17
12 10 8 9 12 7 5 8 11 2 2 6 8 8 4 7 8 7 2 8 3 3 8 2 5 7 12 14 17 18 17 14 14 16 17 18 20 21 21 21 20 21 20 21 20 18 19 20 21 21 22 20 19 19 20 21 20 20 20 19 18 17 17
7 7 6 5 6 11 14 9 7 10 5 8 3 2 11 6 9 5 3 2 6 9 6 3 5 9 11 10 12 14 15 13 15 17 19 20 21 18 16 18 18 18 18 18 19 20 20 20 21 22 22 20 18 18 19 20 22 23 22 19 19 17 18
7 5 8 13 12 7 6 5 7 5 7 8 8 9 2 4 5 3 7 2 11 6 6 8 10 10 12 14 13 14 16 16 16 16 17 18 17 17 18 18 19 20 20 20 21 21 20 20 19 19 19 17 19 19 19 19 19 18 18 19 18 18 17
6 7 6 12 13 13 10 6 7 4 5 1 7 1 9 7 4 5 2 7 7 6 7 9 11 12 12 13 14 15 16 17 17 17 18 17 18 18 19 19 19 20 20 20 20 20 20 20 18 17 16 19 20 18 18 19 20 20 20 19 17 17 16
9 4 7 13 13 13 11 11 11 10 9 4 9 10 1 3 5 6 5 15 6 6 4 10 11 11 13 14 16 16 17 18 18 19 19 18 17 18 20 19 19 19 20 19 19 18 16 15 15 15 16 17 17 17 19 18 18 18 20 19 18 17 16
9 10 10 10 14 12 11 11 11 9 5 5 4 6 8 0 6 4 4 4 13 7 8 9 10 10 11 11 11 12 12 14 16 18 18 18 19 20 18 18 19 19 19 19 19 19 17 18 17 18 18 17 18 20 19 17 19 20 20 19 17 16 16
3 5 4 4 5 9 10 10 9 11 11 10 12 9 6 7 2 3 1 9 3 4 6 8 8 9 10 8 8 13 12 11 13 15 15 15 12 13 16 17 17 17 17 17 15 13 14 15 15 17 17 17 18 18 18 18 21 21 19 17 17 17 16
6 7 5 6 2 3 5 7 11 13 13 13 5 4 1 5 8 8 7 15 1 4 2 7 3 3 5 7 7 8 10 9 10 12 12 12 13 14 14 15 17 16 15 13 13 14 15 16 16 17 18 18 17 17 17 18 19 19 17 16 17 17 17
12 11 13 12 10 9 1 3 9 15 19 16 8 13 3 10 3 7 6 3 4 6 5 6 4 6 5 5 5 5 9 12 12 11 10 10 11 13 14 15 15 17 16 15 15 15 14 16 17 17 17 17 17 18 19 19 18 17 17 16 17 17 17
8 5 5 4 6 5 14 12 8 12 15 19 15 5 6 13 3 9 7 7 2 2 3 3 6 7 8 8 6 7 9 9 9 9 10 10 11 14 17 16 17 16 12 14 16 17 17 17 17 16 17 18 18 18 19 18 17 17 17 17 18 17 17
5 6 11 14 9 13 13 13 14 11 10 14 18 16 15 8 7 15 4 7 5 7 4 5 7 7 7 9 9 8 7 8 10 12 12 11 10 9 8 10 12 13 15 16 16 16 16 15 16 15 16 17 18 18 18 17 16 16 14 17 17 18 18
12 11 12 13 12 13 11 14 15 15 14 11 18 19 7 14 13 17 6 9 8 7 7 7 8 10 10 11 9 9 8 7 6 5 7 9 13 14 13 12 12 15 16 15 16 16 16 16 16 17 16 16 15 14 15 15 16 18 18 18 18 18 17
14 14 13 12 10 8 10 14 16 16 16 17 18 16 11 16 12 8 11 11 15 11 10 11 10 11 12 6 4 5 3 6 9 9 10 12 13 14 16 17 16 16 18 17 17 17 17 17 18 17 15 15 16 17 17 17 17 17 16 18 18 18 19
11 14 9 8 7 11 12 9 13 18 18 19 19 16 14 11 11 8 6 7 11 8 6 10 11 11 4 1 3 8 10 6 5 6 9 12 14 14 15 14 16 17 17 17 16 15 16 17 19 18 17 17 17 17 16 17 18 17 18 18 18 19 20
9 6 8 16 15 12 11 15 13 14 19 19 17 15 10 9 11 10 7 8 8 8 10 7 6 5 3 8 6 6 8 7 6 8 10 11 12 12 12 12 13 14 15 16 15 16 17 17 18 16 16 15 15 16 17 18 18 17 17 18 19 20 20
5 10 8 13 15 11 7 15 23 18 11 11 10 10 10 15 15 12 15 15 8 14 10 7 7 8 8 7 7 8 6 5 5 10 12 12 11 12 12 12 12 14 15 16 17 18 17 18 18 19 19 17 17 18 17 18 15 15 17 18 18 18 16
7 16 13 11 5 7 17 13 9 11 14 10 10 9 11 7 11 11 13 14 13 11 4 8 9 10 9 10 5 2 2 2 3 6 8 10 13 12 10 12 14 15 13 12 15 18 19 19 21 20 18 19 19 18 18 14 15 16 17 18 18 18 17
6 8 7 7 5 10 8 3 7 13 11 7 11 10 12 14 12 7 2 7 9 9 9 10 11 3 2 5 5 3 3 2 1 4 5 5 7 8 10 8 8 9 11 12 11 11 11 13 13 12 13 14 14 13 13 14 16 17 17 18 17 16 16
5 4 2 3 6 5 11 6 6 8 5 7 9 5 2 3 4 7 8 7 8 6 7 6 4 8 7 4 4 4 4 4 5 4 4 4 3 5 7 9 14 12 11 13 15 15 13 12 12 14 15 15 14 15 15 16 16 17 16 16 16 14 14
4 4 4 8 10 14 8 1 7 8 3 8 5 11 8 3 2 7 9 10 6 4 4 7 8 7 3 3 4 4 8 8 7 5 6 6 5 4 5 3 6 6 9 15 17 13 12 14 15 16 15 14 15 14 14 15 15 16 16 16 16 16 16
6 5 6 5 2 4 3 1 8 6 8 9 14 11 7 3 2 4 6 10 9 8 7 11 10 5 6 3 2 6 9 8 9 8 6 7 7 6 4 2 3 4 2 5 3 7 12 14 16 15 14 14 13 12 14 13 14 14 15 17 17 17 18
2 0 2 3 3 5 1 13 15 17 15 12 10 2 10 2 0 1 4 5 7 10 15 9 5 7 7 4 4 6 8 8 9 9 9 9 9 9 9 9 9 6 2 4 3 2 5 8 9 6 8 10 11 13 13 14 15 15 16 17 15 16 17
5 2 1 3 3 5 6 14 18 20 16 13 2 7 7 2 3 3 3 0 2 4 4 8 4 7 11 6 2 4 7 6 5 7 9 10 10 10 9 9 8 5 5 1 6 8 7 10 9 8 7 9 11 13 13 13 14 16 17 17 17 17 16
6 4 1 3 5 3 8 16 21 18 14 1 10 11 1 1 3 3 4 3 1 3 6 3 7 3 1 1 2 4 5 7 9 8 7 5 4 7 9 9 8 6 8 3 4 6 4 3 3 5 7 9 11 12 12 12 16 19 18 17 16 16 14
6 3 1 5 6 1 11 17 15 15 4 4 6 5 10 6 2 4 5 8 6 9 11 10 10 5 4 5 5 7 8 7 5 7 9 11 11 10 7 10 13 10 6 7 6 3 1 1 3 6 8 11 11 9 8 13 17 18 16 15 15 14 14
3 3 1 4 6 4 14 20 9 11 7 4 8 13 13 6 1 5 4 7 5 11 13 11 11 9 7 7 8 8 9 11 12 11 12 12 11 12 15 16 15 12 11 11 8 6 6 3 3 7 5 7 7 7 11 15 10 4 4 5 7 8 9
7 5 7 6 3 6 9 8 5 10 6 8 10 9 7 6 4 1 6 7 6 8 14 12 10 9 9 8 8 9 9 8 7 8 9 10 11 10 9 8 9 10 10 10 10 9 8 7 7 1 8 7 6 6 8 4 3 4 5 5 7 9 11
4 7 7 2 0 3 4 4 3 6 11 12 12 10 6 6 5 4 4 7 5 7 12 11 11 11 10 10 9 10 9 9 10 10 10 10 10 10 11 11 9 8 8 9 9 10 9 11 8 8 4 5 7 9 8 6 6 7 7 7 8 8 9
1 5 4 3 1 1 5 1 4 7 13 14 14 12 9 7 5 4 4 5 5 6 6 14 9 9 7 8 8 7 7 8 8 7 8 10 9 10 9 10 11 8 7 7 9 9 10 10 9 8 8 6 5 6 3 6 8 8 9 9 9 11 11
3 2 2 2 3 2 4 5 8 10 11 11 13 13 10 8 6 6 7 7 8 8 9 11 11 8 5 8 7 5 6 8 8 8 9 9 9 10 11 9 8 8 9 11 11 10 9 9 8 8 8 7 7 8 4 4 3 5 7 10 10 10 11
2 4 2 3 6 4 3 5 8 9 10 9 9 9 11 11 7 7 7 7 9 8 12 8 12 9 6 9 7 8 7 6 6 7 7 7 8 8 7 7 7 7 8 8 9 9 8 9 8 7 5 6 6 5 5 5 5 3 6 9 11 11 12
0 3 2 2 6 4 4 5 4 5 5 5 9 11 13 12 11 9 10 11 8 9 8 6 10 13 9 8 8 9 7 8 8 8 7 7 7 6 7 7 7 7 7 8 8 8 8 8 8 8 8 8 7 6 5 5 4 3 3 2 3 5 8
4 3 3 3 7 3 1 2 2 4 5 5 7 8 9 10 7 6 10 10 9 9 8 8 10 12 8 7 9 11 9 8 8 8 8 8 9 9 7 4 4 5 7 6 6 6 5 5 5 6 7 7 7 7 6 5 4 3 2 2 3 6 7
5 2 2 2 2 6 3 2 1 5 3 3 4 3 6 8 6 4 5 10 10 10 8 7 9 9 9 7 8 10 9 7 6 6 8 9 9 9 9 8 7 7 5 6 6 6 5 4 4 5 5 5 7 8 8 7 6 4 3 2 2 3 4
2 3 0 1 1 5 4 3 3 5 4 2 3 1 2 6 7 5 4 5 9 7 7 7 6 7 8 6 8 9 7 6 7 7 7 8 8 8 9 9 9 9 8 8 8 7 5 5 5 5 5 6 7 8 8 9 9 9 9 8 7 7 8
3 1 3 3 1 4 4 4 4 4 5 3 0 2 2 3 5 4 4 4 4 5 7 8 6 6 7 7 7 7 6 6 6 6 6 8 10 9 9 10 10 8 7 6 5 5 6 7 7 6 6 6 7 7 8 8 8 9 9 8 8 7 8
Wind_Direction
196 203 176 201 152 206 204 132 202 214 139 177 243 271 214 115 20 253 179 277 298 305 317 240 213 196 205 207 208 208 212 208 199 201 203 204 206 206 202 203 204 205 206 205 204 201 200 198 195 196 196 193 193 190 191 194 195 192 191 192 194 196 197
229 212 182 191 187 147 122 189 214 99 174 203 186 220 248 231 239 259 192 217 268 189 254 287 182 199 214 204 211 212 213 204 195 203 203 204 207 206 203 203 202 204 203 202 203 205 202 197 195 198 198 195 193 190 191 191 191 192 195 193 195 196 197
209 204 188 276 252 188 208 214 149 167 192 216 231 127 231 215 231 266 292 252 238 192 235 198 212 196 211 217 218 216 215 205 205 206 205 207 209 205 204 205 205 208 207 204 203 204 203 201 199 199 197 192 191 193 194 192 192 194 192 192 194 196 197
206 186 151 216 218 254 255 87 183 182 133 204 176 204 158 146 258 261 280 171 245 193 208 189 199 206 207 206 207 214 217 209 205 207 206 207 204 203 204 204 204 206 206 204 203 204 202 201 201 201 196 191 192 194 192 194 197 194 194 196 194 196 198
164 220 181 203 203 205 210 204 201 206 218 236 189 151 191 202 182 199 237 265 251 242 205 178 194 200 215 203 204 210 213 212 208 208 206 205 203 202 203 203 204 206 207 206 205 205 204 202 200 196 190 192 196 192 194 195 191 192 196 197 195 198 196
208 219 187 201 203 202 208 199 210 200 182 129 181 235 66 146 184 217 179 249 269 266 203 186 193 207 200 206 207 212 213 211 207 210 209 205 202 204 203 202 203 205 207 206 206 204 204 200 198 192 193 195 194 192 197 194 193 195 195 194 196 196 197
212 210 213 203 207 200 207 189 214 189 183 124 164 211 234 328 245 128 194 248 259 230 187 196 191 202 210 212 202 216 221 216 213 214 210 205 202 200 200 201 202 205 205 205 203 199 195 195 195 193 193 193 193 195 194 192 194 198 196 195 194 194 197
292 274 261 253 225 202 211 213 197 185 200 194 213 210 185 187 236 207 342 242 277 230 176 210 204 193 208 222 197 209 219 223 223 218 214 210 206 205 205 201 201 205 206 205 201 195 194 196 195 194 194 195 195 194 193 193 197 197 194 192 193 196 199
254 265 314 280 226 177 208 205 206 206 201 202 201 110 134 213 200 177 149 242 253 282 234 187 258 287 204 216 220 210 222 231 228 227 220 211 206 202 201 202 203 205 205 198 195 195 193 194 194 194 194 195 192 193 193 195 199 194 193 190 192 197 198
219 212 214 217 216 222 289 225 214 206 202 202 170 219 161 213 258 162 200 240 251 274 292 182 197 210 220 240 233 227 216 218 221 227 222 216 211 203 201 203 202 205 202 195 195 195 195 194 193 194 194 193 192 192 195 196 193 189 192 189 194 196 197
255 271 298 239 159 164 215 217 210 220 214 202 201 183 191 215 201 206 213 162 232 275 234 241 233 227 222 235 231 217 229 235 230 226 221 206 203 205 204 202 203 203 196 196 197 196 195 194 194 193 192 192 193 193 195 193 191 190 188 187 193 195 197
257 278 275 286 226 212 211 211 221 220 214 212 208 203 221 131 143 240 191 202 159 240 260 263 269 264 245 235 237 229 230 233 216 213 212 203 205 220 223 214 202 197 200 201 198 197 196 195 194 194 193 193 192 191 192 190 189 187 187 190 194 196 196
312 300 286 282 274 243 217 203 211 216 217 207 213 221 193 166 203 227 184 195 194 236 227 223 228 230 232 237 241 229 227 230 232 237 230 218 210 204 197 203 201 201 202 201 199 195 196 193 191 192 192 194 194 194 192 188 185 189 187 189 194 196 197
311 307 299 294 265 261 253 216 208 210 210 217 216 217 204 199 215 214 207 188 205 200 211 215 230 226 233 223 239 294 291 226 220 209 215 217 214 207 200 199 197 200 201 199 197 194 194 190 191 191 192 192 191 189 189 188 190 191 183 191 193 194 199
309 301 308 328 303 249 245 251 222 209 212 218 219 215 207 210 235 224 199 188 227 250 226 214 222 237 254 33 199 224 242 238 219 219 222 220 219 216 213 205 198 196 200 199 195 194 194 192 192 190 191 192 191 191 189 187 191 188 186 192 194 197 202
312 308 353 328 325 316 256 241 244 225 209 215 217 215 197 179 206 215 223 222 235 262 243 252 260 272 258 248 230 238 249 231 199 207 221 226 227 220 214 203 198 199 197 195 191 195 194 194 192 191 191 190 188 191 190 191 193 186 188 192 196 201 204
260 284 322 319 313 315 280 235 226 222 224 215 215 222 202 202 185 192 216 227 212 222 215 200 250 240 243 259 244 242 267 277 233 208 212 222 229 229 221 206 197 196 196 195 196 197 194 192 192 194 188 184 190 193 191 195 185 183 190 195 199 203 201
292 298 312 308 308 241 232 243 210 206 220 212 208 215 219 218 174 216 205 215 215 225 181 182 221 229 227 227 242 215 246 238 234 271 267 235 219 216 213 208 204 202 198 203 204 199 194 194 194 193 187 187 193 192 191 184 180 189 192 196 198 201 197
285 296 316 319 236 243 263 327 167 203 215 193 198 209 212 215 212 211 199 227 237 221 204 202 212 228 82 83 79 25 4 10 294 245 229 256 276 241 213 210 208 201 200 202 203 203 207 203 199 190 193 196 192 188 184 181 188 190 195 197 199 200 197
268 296 244 244 234 251 307 304 18 333 185 184 170 232 249 285 218 201 205 214 218 206 196 211 191 137 164 124 84 44 10 20 359 338 307 251 198 247 252 216 203 196 193 196 195 201 199 192 190 190 194 193 190 192 185 187 189 193 194 196 200 197 200
225 223 252 246 294 314 301 354 19 22 351 323 246 204 248 230 214 169 198 202 210 180 188 175 165 163 153 55 357 24 18 357 358 344 323 312 274 240 223 236 284 279 226 198 195 190 186 189 189 194 195 192 193 187 183 190 188 193 192 196 198 195 198
198 253 284 320 327 239 270 252 310 315 322 301 300 285 240 262 244 205 182 184 180 154 153 155 161 130 88 59 303 332 357 357 346 343 341 352 7 9 340 294 206 182 227 292 265 195 189 193 195 196 192 188 187 183 187 186 188 193 195 201 200 197 198
251 351 203 224 251 250 156 337 326 327 325 320 302 319 250 275 280 272 152 173 169 160 153 168 151 120 136 200 258 307 349 346 348 344 351 2 5 6 11 15 356 338 293 183 208 199 189 207 212 196 187 184 182 191 188 186 188 192 199 204 200 200 202
219 203 224 275 231 272 326 333 334 322 312 308 100 184 243 269 341 29 78 80 156 128 133 130 88 127 157 197 236 335 351 336 345 354 354 1 2 3 0 6 358 329 309 206 157 174 193 214 194 177 173 181 190 193 191 184 187 197 202 202 200 203 202
183 144 251 300 293 290 353 343 323 315 309 288 158 200 235 277 43 46 96 115 148 119 118 120 106 358 165 70 41 2 343 360 6 3 7 0 357 4 5 2 351 6 1 332 227 221 216 209 176 177 168 181 196 199 193 189 197 202 201 200 199 202 197
174 150 154 231 260 301 352 334 317 314 313 161 189 281 306 300 44 60 109 101 82 90 75 95 102 112 54 45 20 27 25 27 10 7 6 8 11 13 13 11 11 6 23 28 20 22 4 125 134 167 175 186 198 202 199 210 212 207 201 197 197 196 192
64 54 67 308 296 260 3 331 319 14 43 292 291 302 306 313 309 122 81 91 95 98 92 81 96 96 80 61 51 40 33 29 21 13 14 18 16 9 5 4 5 7 4 10 26 28 3 7 127 145 159 197 212 197 199 218 229 263 233 209 207 201 189
138 163 178 205 208 307 336 354 359 335 324 309 313 306 291 313 317 345 95 59 79 100 109 114 102 100 97 76 69 57 46 39 30 29 21 14 14 15 19 19 7 8 11 5 2 7 14 10 356 5 157 176 187 193 226 233 196 173 179 193 184 181 185
156 181 186 159 165 285 303 324 304 309 343 351 341 339 329 311 320 325 72 90 75 90 107 98 99 89 78 78 65 61 48 39 31 27 25 23 19 11 9 6 6 21 21 9 3 3 5 3 360 353 333 187 181 204 209 174 171 173 178 173 171 185 196
101 39 64 96 70 348 305 306 345 358 10 359 354 346 330 324 328 354 64 69 70 63 72 96 70 78 92 79 69 62 48 43 32 27 28 27 25 26 22 14 10 9 16 25 23 9 1 2 360 357 354 334 222 225 180 185 177 176 173 176 182 192 194
109 208 210 131 124 25 344 352 25 25 31 13 356 338 322 317 347 29 41 71 77 85 82 88 101 99 100 95 89 76 62 50 40 36 33 26 22 21 27 15 13 15 20 22 16 13 6 4 358 358 355 3 348 334 313 307 263 181 175 175 183 185 189
188 160 162 212 127 109 2 23 30 22 12 9 0 335 323 329 345 30 41 53 61 66 69 74 90 83 73 80 78 70 63 58 50 47 41 31 29 29 27 19 19 21 24 25 21 13 6 353 354 353 3 1 351 335 308 299 295 226 180 183 181 187 184
78 121 174 131 142 102 51 12 52 74 48 352 9 352 341 337 345 12 44 49 55 60 70 76 84 75 56 60 65 65 51 45 40 36 38 38 39 34 36 28 24 27 19 22 14 17 5 351 351 352 357 357 354 349 332 324 324 276 227 214 167 156 158
206 185 211 184 138 161 119 339 27 49 39 36 25 360 333 326 328 344 57 53 50 54 50 60 71 80 72 55 64 64 53 45 33 27 29 33 36 32 26 34 39 38 35 30 31 21 4 353 355 1 3 2 3 1 358 357 11 25 34 93 148 176 176
212 186 180 219 117 106 147 183 107 94 77 58 73 59 303 301 310 336 68 82 65 61 52 44 73 77 74 61 67 65 50 37 28 31 33 35 33 30 22 27 30 39 35 34 25 18 5 358 8 11 20 22 22 20 18 19 22 30 46 78 157 210 225
285 261 277 92 157 156 156 140 106 79 71 70 22 341 298 308 314 328 34 69 98 97 80 60 58 79 80 66 69 73 54 35 32 32 33 39 37 32 28 27 26 25 26 23 21 13 0 4 7 11 25 29 33 36 38 38 41 43 31 26 8 351 341
271 0 311 303 299 118 123 107 84 74 72 70 251 310 329 303 326 344 12 39 41 80 87 78 55 52 79 72 67 68 65 40 27 29 38 43 42 37 30 26 18 16 11 14 17 17 21 18 13 11 21 20 24 34 38 44 57 63 63 63 58 50 30